Location: Shepherdstown, WV
(39.4326°N, 77.8042°W)
Time: 20:17:33
(UTC-04:00)

Vanguard 1 Rocket - Pass Details

Date: 14 August 2021
Orbit: 650 x 4226 km, 34.3° (Epoch: 19 September)

Event Time Altitude Azimuth Distance (km) Brightness Sun altitude
Rises 13:39:42 0° 284° (WNW) 7,917 12.2 64.2°
Reaches altitude 10° 13:46:10 10° 279° (W) 6,430 11.9 63.8°
Maximum altitude 14:02:19 39° 219° (SW) 3,008 11.5 62.7°
Drops below altitude 10° 14:11:19 10° 154° (SSE) 3,626 10.8 61.9°
Sets 14:13:53 0° 145° (SE) 4,266 11.0 61.6°
